This is the latest recevied weather packets stored in our database for station/object KM6YFK-13. If no packets are shown the sender has not sent any weather packets the latest 1 day(s).
| Time | Temp. | Humidity | Pressure | Rain* | Wind** | Luminosity | Snow |
|---|---|---|---|---|---|---|---|
| 1777997610 | 25.56° C | 51% | 1017.6 hPa | 0 mm | 0.89 m/s, 109° | 930 W/m² | - |
| 1777997309 | 25.56° C | 51% | 1017.5 hPa | 0 mm | 0.89 m/s, 118° | 958 W/m² | - |
| 1777997007 | 25.56° C | 51% | 1017.4 hPa | 0 mm | 1.79 m/s, 147° | 941 W/m² | - |
| 1777996708 | 25.56° C | 50% | 1017.4 hPa | 0 mm | 0.89 m/s, 111° | 932 W/m² | - |
| 1777996410 | 25.56° C | 51% | 1017.4 hPa | 0 mm | 0.89 m/s, 109° | 923 W/m² | - |
| 1777996112 | 25.56° C | 52% | 1017.5 hPa | 0 mm | 0.89 m/s, 95° | 912 W/m² | - |
| 1777995810 | 25.56° C | 54% | 1017.5 hPa | 0 mm | 0.89 m/s, 95° | 903 W/m² | - |
| 1777995508 | 25.56° C | 53% | 1017.4 hPa | 0 mm | 0.89 m/s, 105° | 888 W/m² | - |
| 1777995210 | 25.56° C | 53% | 1017.4 hPa | 0 mm | 0.89 m/s, 129° | 877 W/m² | - |
| 1777994910 | 25.56° C | 54% | 1017.4 hPa | 0 mm | 0.45 m/s, 109° | 890 W/m² | - |
| 1777994610 | 25° C | 50% | 1017.5 hPa | 0 mm | 0.89 m/s, 108° | 868 W/m² | - |
| 1777994311 | 25° C | 52% | 1017.5 hPa | 0 mm | 1.34 m/s, 128° | 838 W/m² | - |
| 1777994008 | 25.56° C | 52% | 1017.5 hPa | 0 mm | 0.89 m/s, 133° | 836 W/m² | - |
| 1777993709 | 25° C | 52% | 1017.6 hPa | 0 mm | 0.89 m/s, 137° | 810 W/m² | - |
| 1777993407 | 25.56° C | 54% | 1017.5 hPa | 0 mm | 0.89 m/s, 93° | 777 W/m² | - |
| 1777993110 | 25.56° C | 53% | 1017.5 hPa | 0 mm | 0.89 m/s, 104° | 783 W/m² | - |
| 1777992809 | 25° C | 51% | 1017.4 hPa | 0 mm | 0.89 m/s, 148° | 761 W/m² | - |
| 1777992507 | 25° C | 55% | 1017.3 hPa | 0 mm | 0.89 m/s, 110° | 751 W/m² | - |
| 1777992208 | 25° C | 54% | 1017.3 hPa | 0 mm | 0.89 m/s, 104° | 735 W/m² | - |
| 1777991908 | 25° C | 54% | 1017.3 hPa | 0 mm | 0.45 m/s, 119° | 713 W/m² | - |
| 1777991610 | 25° C | 53% | 1017.3 hPa | 0 mm | 0.89 m/s, 125° | 700 W/m² | - |
| 1777991310 | 25° C | 53% | 1017.2 hPa | 0 mm | 0.89 m/s, 125° | 682 W/m² | - |
| 1777991010 | 25° C | 52% | 1017.1 hPa | 0 mm | 0.45 m/s, 108° | 675 W/m² | - |
| 1777990708 | 25° C | 53% | 1017.1 hPa | 0 mm | 0.45 m/s, 119° | 657 W/m² | - |
| 1777990411 | 25° C | 54% | 1017 hPa | 0 mm | 0.45 m/s, 123° | 640 W/m² | - |
* Rain latest hour (hover to see other rain measurements)
** Current wind speed in m/s (hover to see current wind gust speed)